User: anonymous   Login
Location: Vancouver
(49.2500°N, 123.1330°W)
Time: 08:42:31
(UTC-07:00)
Language:

BREEZE-M DEB (TANK) - Orbit

View from above orbital plane
View from above orbital plane
View from above satellite
View from above satellite

Ground track
Ground track

The orbit data is extracted from the following two-line orbital elements,

1 27821U 03024B   16269.02576792  .00002689  00000-0  34176-3 0  9990
2 27821  49.5613 152.4344 4943860 187.6954 160.4712  5.73877925265194
Epoch (UTC): 25 September 2016 00:37:06
Eccentricity: 0.4943860
inclination: 49.5613°
perigee height: 285 km
apogee height: 13315 km
right ascension of ascending node: 152.4344°
argument of perigee: 187.6954°
revolutions per day: 5.73877925
mean anomaly at epoch: 160.4712°
orbit number at epoch: 26519

The dashed part of the orbit path shows where the satellite is in the earth's shadow,  

DLR